QPF
0.00 0.00 0.00 0.00 0.00 0.00 0.00 0.00 0.00 0.00 0.01 0.03 0.03 0.03 0.07 0.07 0.04 0.05 0.05 0.02 0.01 0.00 0.01 0.04 0.03 0.01 0.01 0.02 0.02 0.01 0.01 0.04 0.00 0.00 0.00 0.00 0.00 0.00 0.00 0.00 0.00 0.00 0.01
0.00 0.00 0.00 0.00 0.00 0.00 0.00 0.01 0.04 0.04 0.05 0.07 0.07 0.08 0.07 0.04 0.03 0.03 0.02 0.02 0.01 0.02 0.02 0.01 0.01 0.00 0.00 0.01 0.01 0.01 0.00 0.02 0.01 0.01 0.00 0.00 0.00 0.00 0.00 0.00 0.00 0.00 0.00
0.00 0.00 0.00 0.01 0.01 0.03 0.03 0.04 0.05 0.05 0.06 0.08 0.08 0.07 0.05 0.04 0.02 0.00 0.01 0.02 0.03 0.05 0.04 0.01 0.01 0.00 0.00 0.00 0.00 0.00 0.00 0.00 0.00 0.00 0.00 0.00 0.00 0.00 0.00 0.00 0.00 0.00 0.00
0.00 0.00 0.02 0.03 0.02 0.02 0.03 0.02 0.01 0.01 0.02 0.05 0.07 0.08 0.05 0.02 0.00 0.00 0.00 0.02 0.04 0.05 0.03 0.01 0.01 0.00 0.00 0.00 0.00 0.00 0.00 0.00 0.00 0.00 0.00 0.00 0.00 0.00 0.00 0.00 0.00 0.00 0.00
0.01 0.03 0.03 0.02 0.01 0.02 0.02 0.02 0.02 0.02 0.04 0.04 0.05 0.07 0.07 0.05 0.00 0.00 0.00 0.02 0.05 0.04 0.02 0.01 0.01 0.00 0.00 0.00 0.00 0.00 0.00 0.00 0.00 0.00 0.00 0.00 0.00 0.01 0.00 0.00 0.00 0.00 0.00
0.01 0.02 0.01 0.00 0.01 0.05 0.06 0.05 0.05 0.04 0.03 0.03 0.04 0.04 0.06 0.04 0.00 0.00 0.00 0.01 0.04 0.01 0.01 0.00 0.00 0.00 0.00 0.00 0.00 0.00 0.00 0.00 0.00 0.00 0.00 0.00 0.00 0.00 0.00 0.00 0.00 0.00 0.00
0.01 0.00 0.00 0.01 0.04 0.07 0.06 0.06 0.04 0.01 0.01 0.01 0.01 0.00 0.01 0.01 0.00 0.00 0.00 0.01 0.06 0.03 0.01 0.00 0.01 0.01 0.01 0.00 0.00 0.00 0.00 0.00 0.00 0.00 0.00 0.00 0.00 0.00 0.00 0.00 0.00 0.00 0.00
0.00 0.01 0.02 0.04 0.06 0.05 0.04 0.02 0.01 0.01 0.02 0.01 0.00 0.00 0.00 0.00 0.00 0.00 0.00 0.01 0.05 0.04 0.01 0.01 0.01 0.00 0.00 0.00 0.00 0.00 0.00 0.00 0.00 0.00 0.00 0.00 0.00 0.00 0.00 0.00 0.00 0.00 0.00
0.01 0.02 0.03 0.05 0.02 0.01 0.00 0.00 0.01 0.02 0.02 0.00 0.00 0.00 0.00 0.00 0.00 0.00 0.00 0.04 0.04 0.02 0.01 0.00 0.00 0.00 0.00 0.00 0.00 0.00 0.00 0.00 0.00 0.00 0.00 0.00 0.00 0.00 0.00 0.00 0.00 0.00 0.00
0.02 0.01 0.04 0.02 0.00 0.01 0.01 0.01 0.02 0.01 0.00 0.00 0.00 0.00 0.01 0.00 0.00 0.00 0.00 0.00 0.01 0.00 0.00 0.00 0.00 0.00 0.00 0.00 0.00 0.00 0.00 0.00 0.00 0.00 0.00 0.00 0.00 0.00 0.00 0.00 0.00 0.00 0.00
0.02 0.02 0.02 0.00 0.00 0.01 0.01 0.01 0.00 0.00 0.00 0.00 0.00 0.01 0.02 0.00 0.01 0.00 0.00 0.00 0.00 0.00 0.00 0.00 0.00 0.00 0.00 0.00 0.00 0.00 0.00 0.00 0.00 0.00 0.00 0.00 0.00 0.00 0.00 0.00 0.00 0.00 0.00
0.03 0.02 0.00 0.01 0.01 0.00 0.00 0.00 0.00 0.00 0.00 0.00 0.01 0.01 0.02 0.01 0.00 0.00 0.00 0.00 0.00 0.00 0.00 0.00 0.00 0.00 0.00 0.00 0.00 0.00 0.00 0.00 0.00 0.00 0.00 0.00 0.00 0.00 0.00 0.00 0.00 0.00 0.00
0.01 0.01 0.01 0.01 0.00 0.00 0.00 0.00 0.00 0.00 0.00 0.01 0.01 0.01 0.01 0.00 0.00 0.00 0.00 0.00 0.00 0.00 0.00 0.00 0.00 0.00 0.00 0.00 0.00 0.00 0.00 0.00 0.00 0.00 0.00 0.00 0.00 0.00 0.00 0.00 0.00 0.00 0.00
0.01 0.01 0.00 0.00 0.00 0.00 0.00 0.00 0.00 0.00 0.01 0.01 0.00 0.01 0.00 0.00 0.00 0.00 0.00 0.00 0.00 0.00 0.00 0.00 0.00 0.00 0.00 0.00 0.00 0.00 0.00 0.00 0.00 0.00 0.00 0.00 0.00 0.00 0.00 0.00 0.00 0.00 0.00
0.00 0.00 0.00 0.00 0.00 0.00 0.00 0.00 0.01 0.00 0.00 0.00 0.00 0.00 0.00 0.00 0.00 0.00 0.00 0.00 0.00 0.00 0.00 0.00 0.00 0.00 0.00 0.00 0.00 0.00 0.00 0.00 0.00 0.00 0.00 0.00 0.00 0.00 0.00 0.00 0.00 0.00 0.00
0.00 0.00 0.00 0.00 0.00 0.00 0.01 0.00 0.00 0.00 0.00 0.00 0.00 0.00 0.00 0.00 0.00 0.00 0.00 0.00 0.00 0.00 0.00 0.00 0.00 0.00 0.00 0.00 0.00 0.00 0.00 0.00 0.00 0.00 0.00 0.00 0.00 0.00 0.00 0.00 0.00 0.00 0.00
0.00 0.00 0.00 0.00 0.01 0.02 0.01 0.01 0.01 0.00 0.00 0.00 0.00 0.00 0.00 0.00 0.00 0.00 0.00 0.00 0.00 0.00 0.00 0.00 0.00 0.00 0.00 0.00 0.00 0.00 0.00 0.00 0.00 0.00 0.00 0.00 0.00 0.00 0.00 0.00 0.00 0.00 0.00
0.00 0.00 0.00 0.00 0.01 0.01 0.01 0.00 0.00 0.00 0.00 0.00 0.00 0.00 0.00 0.00 0.00 0.00 0.00 0.00 0.00 0.00 0.00 0.00 0.00 0.00 0.00 0.00 0.00 0.00 0.00 0.00 0.00 0.00 0.00 0.00 0.00 0.00 0.00 0.00 0.00 0.00 0.00
0.00 0.00 0.00 0.00 0.00 0.00 0.00 0.00 0.00 0.00 0.00 0.00 0.00 0.00 0.00 0.00 0.00 0.00 0.00 0.00 0.00 0.00 0.00 0.00 0.00 0.00 0.00 0.00 0.00 0.00 0.00 0.00 0.00 0.00 0.00 0.00 0.00 0.00 0.00 0.00 0.00 0.00 0.00
0.00 0.00 0.00 0.00 0.00 0.00 0.00 0.00 0.00 0.00 0.00 0.00 0.00 0.00 0.00 0.00 0.00 0.00 0.00 0.00 0.00 0.00 0.00 0.00 0.00 0.00 0.00 0.00 0.00 0.00 0.00 0.00 0.00 0.00 0.00 0.00 0.00 0.00 0.00 0.00 0.00 0.00 0.00
0.00 0.00 0.00 0.00 0.00 0.00 0.00 0.00 0.00 0.00 0.00 0.00 0.00 0.00 0.00 0.00 0.00 0.00 0.00 0.00 0.00 0.00 0.00 0.00 0.00 0.00 0.00 0.00 0.00 0.00 0.00 0.00 0.00 0.00 0.00 0.00 0.00 0.00 0.00 0.00 0.00 0.00 0.00
0.00 0.00 0.00 0.00 0.00 0.00 0.00 0.00 0.00 0.00 0.00 0.00 0.00 0.00 0.00 0.00 0.00 0.00 0.00 0.00 0.00 0.00 0.00 0.00 0.00 0.00 0.00 0.00 0.00 0.00 0.00 0.00 0.00 0.00 0.00 0.00 0.00 0.00 0.00 0.00 0.00 0.00 0.00
0.00 0.00 0.00 0.00 0.00 0.00 0.00 0.00 0.00 0.00 0.00 0.00 0.00 0.00 0.00 0.00 0.00 0.00 0.00 0.00 0.00 0.00 0.00 0.00 0.00 0.00 0.00 0.00 0.00 0.00 0.00 0.00 0.00 0.00 0.00 0.00 0.00 0.00 0.00 0.00 0.00 0.00 0.00
0.00 0.00 0.00 0.00 0.00 0.00 0.00 0.00 0.00 0.00 0.00 0.00 0.00 0.00 0.00 0.00 0.00 0.00 0.00 0.00 0.00 0.00 0.00 0.00 0.00 0.00 0.00 0.00 0.00 0.00 0.00 0.00 0.00 0.00 0.00 0.00 0.00 0.00 0.00 0.00 0.00 0.00 0.00
0.00 0.00 0.00 0.00 0.00 0.00 0.00 0.00 0.00 0.00 0.00 0.00 0.00 0.00 0.00 0.00 0.00 0.00 0.00 0.00 0.00 0.00 0.00 0.00 0.00 0.00 0.00 0.00 0.00 0.00 0.00 0.00 0.00 0.00 0.00 0.00 0.00 0.00 0.00 0.00 0.00 0.00 0.00
0.00 0.00 0.00 0.00 0.00 0.00 0.00 0.00 0.00 0.00 0.00 0.00 0.00 0.00 0.00 0.00 0.00 0.00 0.00 0.00 0.00 0.00 0.00 0.00 0.00 0.00 0.00 0.00 0.00 0.00 0.00 0.00 0.00 0.00 0.00 0.00 0.00 0.00 0.00 0.00 0.00 0.00 0.00
MSLP
1020.28 1020.06 1019.92 1019.45 1018.98 1018.66 1018.49 1018.27 1017.99 1017.84 1017.54 1017.41 1017.25 1016.96 1016.99 1017.03 1017.08 1017.12 1017.04 1016.85 1016.67 1016.51 1016.33 1016.09 1015.88 1015.92 1015.77 1015.29 1014.98 1014.81 1014.44 1014.63 1014.83 1014.65 1014.74 1014.71 1014.65 1014.53 1014.28 1014.02 1013.74 1013.16 1012.48
1020.50 1020.17 1019.72 1019.06 1019.09 1018.77 1018.40 1018.25 1018.19 1018.02 1017.76 1017.43 1017.07 1016.85 1016.87 1016.76 1016.87 1016.89 1016.64 1016.58 1016.55 1016.40 1016.29 1016.01 1015.61 1015.66 1015.86 1015.57 1015.01 1014.97 1014.57 1014.77 1014.71 1014.69 1014.78 1014.99 1015.03 1014.95 1014.77 1014.61 1014.28 1013.85 1013.25
1020.35 1019.60 1019.41 1019.25 1019.12 1018.99 1018.79 1018.50 1018.28 1017.91 1017.52 1017.44 1017.19 1017.03 1016.86 1016.83 1016.83 1016.77 1016.62 1016.54 1016.22 1016.23 1016.19 1015.81 1015.61 1015.70 1015.87 1015.73 1015.62 1014.97 1015.02 1014.83 1014.71 1014.42 1014.84 1015.03 1015.17 1015.10 1015.11 1014.79 1014.62 1014.32 1013.72
1019.97 1019.64 1019.20 1019.39 1019.12 1018.61 1018.62 1018.47 1017.89 1017.69 1017.51 1017.49 1017.29 1017.20 1017.05 1016.96 1016.96 1016.99 1016.83 1016.47 1016.27 1016.10 1016.07 1015.82 1015.63 1015.96 1015.80 1015.84 1015.72 1015.30 1014.99 1014.92 1014.76 1014.74 1014.89 1014.99 1015.16 1015.37 1015.29 1015.13 1015.00 1014.85 1014.52
1020.05 1019.88 1019.88 1019.21 1018.89 1018.78 1018.67 1018.60 1018.40 1018.21 1018.04 1017.75 1017.58 1017.41 1017.45 1017.48 1017.82 1017.97 1017.58 1016.89 1016.45 1016.20 1015.90 1015.80 1015.74 1015.90 1015.96 1016.02 1015.86 1015.41 1015.26 1015.24 1015.01 1015.04 1015.09 1015.07 1015.15 1015.11 1015.34 1015.38 1015.33 1015.22 1015.08
1020.23 1019.78 1019.43 1018.97 1018.67 1018.68 1018.88 1018.80 1018.72 1018.49 1018.27 1018.11 1018.09 1018.07 1017.81 1018.10 1018.64 1018.47 1018.27 1017.36 1016.58 1016.20 1016.23 1016.07 1015.96 1015.64 1015.64 1015.75 1015.73 1015.70 1015.64 1015.49 1015.23 1015.12 1015.13 1015.15 1015.31 1015.40 1015.37 1015.23 1015.19 1015.10 1015.19
1020.65 1020.48 1019.66 1019.52 1019.22 1019.35 1019.68 1019.30 1018.98 1018.72 1018.54 1018.52 1018.71 1018.76 1018.68 1018.69 1018.91 1018.69 1018.30 1017.52 1016.81 1016.44 1016.27 1016.26 1016.01 1015.81 1015.82 1015.80 1015.56 1015.40 1015.29 1015.50 1015.44 1015.31 1015.30 1015.37 1015.42 1015.56 1015.47 1015.51 1015.54 1015.54 1015.81
1020.56 1020.24 1020.25 1020.01 1019.92 1020.09 1020.01 1019.57 1019.50 1019.25 1019.29 1019.24 1019.34 1019.50 1019.45 1019.21 1019.21 1018.82 1018.19 1017.40 1016.97 1016.61 1016.41 1016.56 1016.56 1016.44 1016.24 1016.24 1015.94 1015.69 1015.75 1015.63 1015.49 1015.44 1015.58 1015.75 1015.80 1015.75 1015.73 1015.84 1015.96 1016.04 1016.17
1020.80 1020.52 1020.45 1020.63 1020.39 1020.21 1020.07 1019.94 1020.19 1019.96 1020.15 1020.12 1020.18 1020.02 1019.83 1019.61 1019.41 1018.91 1018.14 1017.43 1017.07 1016.77 1016.95 1017.34 1017.30 1016.90 1016.77 1016.43 1016.15 1016.22 1016.21 1016.17 1016.10 1016.09 1016.14 1016.20 1016.20 1016.21 1016.13 1016.08 1016.02 1015.93 1015.95
1021.03 1020.83 1021.08 1021.02 1020.94 1021.12 1020.82 1021.08 1021.12 1020.90 1020.79 1020.65 1020.41 1020.28 1020.13 1019.89 1019.63 1019.15 1018.51 1017.56 1017.50 1017.57 1017.90 1017.86 1017.78 1017.53 1017.18 1016.89 1016.71 1016.68 1016.63 1016.71 1016.63 1016.50 1016.30 1016.48 1016.27 1016.30 1016.34 1016.20 1016.00 1016.01 1015.89
1021.51 1021.49 1021.52 1021.69 1021.77 1021.93 1021.87 1021.76 1021.56 1021.25 1020.98 1020.61 1020.52 1020.24 1019.93 1019.98 1019.88 1019.72 1019.35 1018.90 1018.77 1018.53 1018.49 1018.42 1018.32 1018.03 1017.67 1017.42 1017.26 1017.21 1017.24 1017.20 1017.02 1016.87 1016.67 1016.77 1016.65 1016.57 1016.65 1016.35 1016.24 1015.85 1015.23
1022.16 1021.82 1022.09 1022.48 1022.50 1022.34 1022.13 1022.09 1021.85 1021.60 1021.26 1020.89 1020.32 1019.98 1019.89 1020.30 1020.23 1019.99 1019.75 1019.50 1019.20 1018.97 1018.95 1018.94 1018.86 1018.47 1018.19 1018.04 1017.89 1017.76 1017.53 1017.30 1017.10 1016.84 1016.85 1017.21 1017.05 1016.56 1016.88 1016.32 1015.75 1015.47 1015.41
1022.52 1022.82 1023.07 1022.94 1022.85 1022.65 1022.63 1022.48 1022.33 1022.01 1021.53 1020.97 1020.69 1020.68 1020.73 1020.71 1020.55 1020.36 1020.12 1019.84 1019.57 1019.45 1019.38 1019.25 1019.00 1018.68 1018.50 1018.29 1018.27 1017.85 1017.68 1017.42 1017.51 1017.54 1017.93 1018.01 1017.80 1017.56 1017.17 1016.38 1016.32 1016.32 1016.11
1023.72 1023.67 1023.73 1023.42 1023.37 1023.13 1023.03 1022.88 1022.64 1022.48 1022.25 1022.00 1021.84 1021.61 1021.44 1021.24 1021.12 1020.84 1020.43 1020.12 1019.88 1019.69 1019.55 1019.44 1019.30 1019.06 1018.91 1018.90 1018.88 1018.80 1018.68 1018.66 1018.56 1018.60 1018.29 1017.78 1017.32 1016.75 1016.26 1015.95 1015.72 1015.76 1015.71
1024.43 1024.25 1023.92 1024.09 1023.92 1023.79 1023.59 1023.77 1023.48 1023.69 1023.60 1023.23 1022.88 1022.44 1022.07 1021.99 1021.99 1021.64 1021.07 1020.52 1020.18 1019.89 1019.55 1019.52 1019.36 1019.22 1019.20 1019.43 1019.72 1019.47 1019.10 1018.98 1018.82 1018.48 1017.72 1016.99 1016.56 1016.24 1015.94 1015.59 1015.23 1015.17 1015.22
1024.91 1024.78 1024.77 1024.53 1024.12 1024.05 1024.12 1024.36 1024.43 1024.30 1024.02 1023.75 1023.51 1023.14 1022.70 1022.72 1022.39 1022.08 1021.64 1021.21 1020.90 1020.66 1020.33 1020.00 1019.83 1019.67 1019.57 1019.49 1019.35 1019.18 1018.57 1017.94 1017.53 1017.22 1016.89 1016.58 1016.31 1015.90 1015.47 1015.20 1015.00 1014.83 1014.82
1025.41 1025.13 1024.94 1024.45 1024.10 1023.89 1023.85 1024.06 1024.11 1024.55 1024.17 1023.89 1023.69 1023.52 1023.35 1023.19 1022.77 1022.45 1022.15 1021.75 1021.25 1020.81 1020.17 1019.70 1019.06 1018.48 1018.38 1018.17 1018.06 1017.85 1017.62 1017.43 1016.96 1016.60 1016.32 1016.06 1015.76 1015.67 1015.33 1015.17 1014.96 1014.76 1014.84
1025.63 1025.61 1025.26 1024.88 1024.48 1023.99 1024.19 1024.30 1024.56 1024.58 1024.36 1024.09 1023.80 1023.83 1023.49 1023.34 1023.10 1022.63 1021.94 1021.52 1021.02 1020.52 1019.47 1019.24 1019.10 1018.89 1018.66 1018.37 1018.29 1018.03 1017.90 1017.72 1017.39 1017.14 1016.90 1016.72 1016.59 1016.12 1015.66 1015.44 1015.23 1015.30 1015.37
1025.79 1025.84 1025.79 1025.71 1025.54 1025.36 1025.22 1025.14 1025.00 1024.74 1024.44 1024.03 1023.65 1023.42 1023.21 1023.03 1022.59 1021.95 1021.44 1020.73 1020.55 1020.19 1019.79 1019.50 1019.19 1018.89 1018.58 1018.34 1018.01 1018.00 1017.91 1017.63 1017.32 1016.98 1016.81 1016.66 1016.28 1015.99 1015.46 1015.41 1015.38 1015.39 1015.30
1026.29 1026.49 1026.37 1026.22 1026.01 1025.82 1025.37 1025.12 1024.83 1024.31 1023.72 1023.33 1023.13 1023.00 1023.02 1022.95 1021.98 1022.09 1021.66 1021.27 1020.89 1020.49 1020.08 1019.74 1019.45 1019.25 1019.02 1018.74 1018.43 1018.17 1017.98 1017.73 1017.50 1017.20 1016.79 1016.29 1015.95 1015.57 1015.43 1015.45 1015.24 1015.18 1014.72
1026.83 1026.86 1026.78 1026.52 1026.35 1026.09 1025.68 1025.09 1024.33 1023.58 1023.13 1022.85 1022.76 1022.74 1022.65 1022.29 1022.30 1022.12 1021.79 1021.39 1021.04 1020.69 1020.23 1019.73 1019.45 1018.90 1018.57 1018.43 1018.15 1018.05 1017.85 1017.77 1017.45 1017.02 1016.69 1016.40 1016.00 1015.49 1015.35 1014.82 1014.72 1014.69 1014.75
1027.18 1027.04 1026.78 1026.59 1026.51 1026.27 1025.42 1024.28 1023.30 1023.27 1023.22 1022.99 1022.75 1022.74 1022.50 1022.28 1022.13 1022.00 1021.88 1021.68 1021.33 1021.13 1020.80 1020.41 1020.09 1019.84 1019.76 1019.70 1019.62 1019.17 1018.80 1018.43 1018.33 1017.73 1017.22 1016.83 1016.45 1015.91 1015.52 1015.26 1015.14 1015.38 1015.55
1027.02 1026.31 1026.23 1026.18 1025.81 1025.48 1024.49 1023.98 1023.81 1023.61 1023.52 1023.28 1022.94 1022.86 1022.93 1022.87 1022.72 1022.62 1022.58 1022.46 1022.27 1022.06 1021.95 1021.96 1021.73 1021.59 1021.24 1021.07 1020.89 1020.83 1020.68 1020.17 1019.00 1018.40 1017.88 1017.44 1017.08 1016.65 1016.33 1016.12 1015.95 1015.75 1015.88
1026.20 1025.76 1025.70 1025.82 1025.60 1025.89 1025.35 1024.56 1024.46 1024.06 1023.57 1023.52 1023.63 1023.63 1023.63 1023.58 1023.48 1023.46 1023.26 1023.13 1023.14 1023.16 1023.08 1022.91 1023.04 1023.22 1023.12 1022.74 1022.44 1021.98 1022.26 1022.25 1020.78 1020.05 1018.55 1018.15 1017.83 1017.42 1017.07 1016.80 1016.55 1016.51 1016.22
1026.40 1025.86 1026.18 1026.42 1026.92 1026.54 1025.21 1024.62 1024.51 1024.40 1024.36 1024.35 1024.35 1024.38 1024.41 1024.40 1024.35 1024.23 1024.03 1024.04 1024.01 1024.04 1024.24 1024.43 1024.46 1024.19 1024.17 1024.23 1024.12 1023.76 1023.45 1022.76 1021.74 1021.25 1019.62 1018.90 1018.70 1018.13 1017.94 1017.57 1017.25 1017.05 1016.94
1026.50 1026.64 1027.29 1027.34 1026.92 1026.16 1025.34 1025.21 1025.16 1025.13 1025.21 1025.31 1025.31 1025.26 1025.26 1025.27 1025.26 1025.14 1025.02 1024.91 1024.79 1024.89 1024.89 1025.05 1025.41 1025.59 1025.26 1025.21 1025.31 1024.86 1024.11 1023.35 1022.55 1021.66 1020.68 1019.54 1019.26 1019.30 1018.88 1018.33 1018.09 1017.58 1017.38
Thickness
5528 5522 5517 5517 5516 5515 5512 5509 5507 5504 5503 5500 5499 5499 5496 5494 5492 5490 5488 5487 5486 5484 5483 5484 5485 5485 5486 5491 5493 5494 5497 5495 5490 5493 5489 5487 5487 5487 5489 5491 5492 5495 5499
5511 5507 5504 5507 5503 5501 5499 5497 5493 5491 5491 5491 5492 5492 5489 5489 5486 5484 5484 5482 5479 5478 5476 5478 5482 5482 5480 5483 5488 5488 5493 5490 5491 5491 5489 5484 5482 5483 5483 5483 5484 5485 5492
5496 5495 5492 5489 5486 5484 5482 5482 5481 5482 5483 5482 5482 5481 5481 5480 5479 5477 5476 5474 5475 5474 5473 5476 5478 5477 5475 5477 5478 5485 5485 5488 5490 5493 5488 5484 5482 5481 5479 5479 5480 5482 5486
5482 5478 5478 5474 5473 5476 5473 5472 5475 5475 5474 5472 5473 5472 5472 5472 5470 5467 5465 5467 5469 5470 5470 5472 5474 5471 5472 5473 5475 5481 5486 5488 5490 5490 5489 5488 5483 5480 5479 5478 5478 5477 5479
5465 5463 5461 5465 5466 5466 5464 5463 5463 5463 5462 5462 5463 5463 5461 5460 5455 5450 5452 5458 5462 5464 5467 5469 5470 5469 5469 5471 5475 5482 5485 5486 5490 5491 5490 5488 5485 5484 5480 5477 5475 5475 5473
5459 5458 5458 5460 5462 5461 5458 5456 5455 5455 5454 5454 5453 5452 5452 5447 5438 5439 5441 5450 5457 5461 5462 5464 5465 5471 5474 5476 5479 5482 5485 5487 5490 5492 5491 5490 5486 5482 5479 5478 5477 5477 5474
5455 5451 5454 5454 5454 5451 5446 5448 5450 5449 5448 5446 5442 5440 5439 5437 5432 5432 5436 5446 5454 5458 5460 5462 5467 5473 5476 5479 5485 5488 5491 5490 5490 5492 5492 5489 5485 5481 5480 5477 5476 5474 5471
5460 5456 5451 5450 5447 5444 5442 5445 5443 5442 5438 5437 5434 5431 5429 5430 5428 5429 5434 5445 5451 5457 5461 5463 5466 5471 5476 5480 5485 5490 5491 5492 5493 5493 5490 5486 5483 5482 5481 5478 5476 5474 5472
5461 5457 5452 5446 5446 5445 5444 5442 5437 5436 5431 5429 5425 5424 5424 5426 5427 5431 5438 5448 5454 5460 5462 5462 5466 5474 5476 5483 5489 5489 5490 5491 5490 5489 5488 5486 5485 5484 5482 5482 5482 5481 5480
5463 5459 5451 5447 5445 5440 5441 5435 5431 5429 5426 5424 5424 5423 5423 5425 5427 5433 5441 5455 5458 5461 5462 5466 5469 5474 5480 5485 5489 5490 5491 5490 5490 5489 5491 5487 5486 5485 5485 5485 5486 5483 5481
5463 5458 5453 5447 5443 5438 5436 5434 5433 5432 5430 5430 5428 5429 5432 5431 5435 5438 5444 5452 5456 5462 5465 5469 5472 5477 5482 5486 5489 5490 5491 5490 5491 5490 5490 5487 5487 5487 5486 5487 5488 5490 5494
5461 5460 5454 5447 5444 5443 5442 5440 5439 5438 5438 5438 5441 5443 5443 5440 5443 5448 5453 5457 5462 5467 5470 5472 5475 5480 5484 5486 5489 5490 5492 5494 5495 5496 5495 5489 5489 5493 5489 5492 5495 5497 5496
5464 5457 5452 5451 5449 5450 5448 5446 5445 5446 5449 5454 5454 5452 5451 5452 5455 5458 5461 5465 5470 5473 5475 5477 5481 5485 5488 5491 5490 5494 5496 5498 5496 5494 5487 5485 5487 5488 5490 5495 5494 5493 5494
5460 5458 5455 5455 5454 5454 5454 5454 5455 5456 5457 5458 5457 5457 5459 5461 5462 5466 5471 5475 5477 5480 5481 5483 5485 5489 5491 5492 5492 5492 5492 5491 5491 5488 5491 5493 5496 5500 5503 5504 5504 5503 5502
5461 5461 5462 5458 5458 5458 5459 5457 5461 5457 5457 5460 5461 5463 5467 5467 5467 5470 5476 5482 5485 5487 5491 5491 5493 5494 5495 5492 5490 5492 5494 5493 5493 5495 5500 5505 5507 5509 5509 5511 5513 5511 5508
5465 5464 5462 5463 5465 5464 5462 5462 5461 5462 5463 5465 5466 5469 5473 5471 5474 5477 5481 5484 5486 5488 5491 5492 5493 5494 5494 5494 5498 5499 5504 5508 5511 5512 5512 5513 5514 5516 5518 5518 5518 5517 5514
5468 5470 5470 5473 5476 5475 5475 5474 5475 5470 5472 5473 5474 5475 5477 5478 5481 5484 5487 5490 5492 5496 5502 5506 5511 5516 5516 5518 5518 5518 5518 5518 5521 5521 5521 5522 5522 5521 5522 5521 5521 5521 5517
5475 5474 5477 5479 5482 5486 5483 5482 5480 5479 5480 5483 5485 5485 5487 5488 5490 5493 5497 5501 5504 5507 5515 5517 5517 5517 5518 5519 5519 5519 5519 5519 5520 5520 5520 5519 5518 5520 5522 5521 5520 5517 5514
5483 5483 5483 5483 5484 5484 5485 5484 5485 5486 5488 5492 5495 5497 5498 5499 5503 5506 5511 5516 5515 5516 5518 5520 5521 5523 5524 5525 5527 5526 5525 5525 5525 5526 5525 5524 5526 5526 5528 5523 5521 5515 5513
5489 5486 5487 5489 5490 5492 5495 5496 5498 5502 5507 5508 5511 5511 5509 5508 5518 5515 5516 5517 5518 5521 5522 5524 5525 5525 5526 5527 5528 5529 5529 5530 5529 5530 5532 5533 5533 5534 5531 5527 5526 5524 5525
5495 5494 5494 5496 5497 5499 5502 5506 5510 5517 5520 5521 5519 5518 5514 5520 5519 5519 5521 5523 5524 5525 5529 5532 5534 5537 5539 5539 5540 5539 5539 5537 5538 5538 5538 5537 5538 5538 5537 5538 5535 5532 5528
5500 5501 5502 5503 5503 5504 5511 5519 5526 5525 5525 5525 5525 5525 5524 5528 5528 5529 5529 5529 5531 5531 5532 5535 5537 5537 5536 5535 5534 5537 5538 5538 5536 5537 5538 5539 5539 5540 5539 5537 5534 5528 5523
5509 5515 5515 5514 5517 5517 5525 5528 5528 5529 5529 5530 5532 5533 5532 5532 5533 5533 5532 5532 5533 5533 5533 5532 5532 5531 5532 5531 5531 5529 5529 5530 5536 5537 5538 5538 5537 5537 5536 5533 5530 5527 5521
5523 5526 5525 5524 5525 5521 5524 5530 5530 5532 5536 5537 5536 5535 5536 5536 5537 5536 5537 5537 5536 5534 5534 5533 5531 5528 5526 5527 5526 5527 5523 5523 5527 5530 5537 5537 5535 5535 5534 5531 5528 5523 5520
5527 5531 5527 5525 5519 5521 5532 5537 5537 5539 5539 5539 5539 5540 5540 5540 5540 5540 5540 5539 5538 5536 5533 5530 5529 5528 5526 5523 5521 5522 5525 5528 5529 5530 5533 5534 5532 5533 5529 5527 5524 5520 5515
5531 5529 5523 5523 5526 5533 5539 5540 5540 5541 5541 5541 5541 5542 5542 5542 5541 5541 5541 5540 5540 5537 5535 5532 5528 5525 5524 5522 5520 5523 5526 5528 5529 5531 5532 5532 5530 5525 5524 5523 5519 5517 5513